Flag for Canada Weather past 2 weeks in Stephenville, Newfoundland and Labrador, Canada

Now
30 °F

Passing clouds.


Feels Like: 20 °F
Forecast: 26 / 31 °F
Wind: 14 mph from Northeast

Location: Stephenville

Current Time: Dec 20, 2014 at 4:00:33 AM

Latest Report: Dec 20, 2014 at 3:30 AM


Visibility: 15 mi

Pressure: 30.04 "Hg

Humidity: 75%

Dew point: 23 °F

Location of StephenvilleLocation

Historic Weather in Stephenville — Graph

°F

Stephenville temperature yesterday

Maximum temperature yesterday: 41 °F (at 12:30 AM)
Minimum temperature yesterday: 32 °F (at 8:30 PM)
Average temperature yesterday: 36 °F

Past Weeks' High & Low Weather Summary

 TemperatureHumidityPressure
High55 °F (Dec 12, 1:30 PM)100% (Dec 7, 1:30 AM)30.80 "Hg (Dec 7, 1:30 AM)
Low10 °F (Dec 8, 12:30 AM)54% (Dec 5, 2:30 PM)29.33 "Hg (Dec 19, 7:30 AM)
Average33 °F81%30.09 "Hg
* Reported Dec 5 2:30 AM — Dec 20 2:30 AM, Stephenville, Weather by CustomWeather, © 2014

Note: Actual official high and low records may vary slightly from our data, if they occured in-between our weather recording intervals... More about our weather records

Advertising

Stephenville weather history for previous 24 hours

 ConditionsComfort  
Time TempWeatherWind HumidityBarometerVisibility
2:30 AM
Dec 20
32 °FPassing clouds.22 mph69%30.01 "Hg15 mi
1:30 AM32 °FPassing clouds.15 mph75%29.96 "Hg15 mi
12:30 AM30 °FPassing clouds.5 mph80%29.93 "Hg15 mi
11:30 PM
Dec 19
32 °FPassing clouds.6 mph75%29.89 "Hg15 mi
10:30 PM32 °FPassing clouds.12 mph75%29.85 "Hg15 mi
9:30 PM32 °FMostly cloudy.13 mph75%29.83 "Hg15 mi
8:30 PM32 °FMostly cloudy.10 mph75%29.78 "Hg15 mi
7:30 PM34 °FPartly cloudy.8 mph81%29.72 "Hg15 mi
6:30 PM34 °FPartly cloudy.15 mph81%29.65 "Hg15 mi
5:30 PM34 °FPassing clouds.9 mph93%29.57 "Hg15 mi
4:30 PM36 °FPartly cloudy.12 mph81%29.52 "Hg12 mi
3:30 PM34 °FSnow flurries. Low clouds.8 mph100%29.46 "Hg10 mi
2:30 PM34 °FSnow flurries. Fog.No wind93%29.40 "Hg4 mi
1:30 PM34 °FSprinkles. Fog.10 mph100%29.37 "Hg6 mi
12:30 PM36 °FSprinkles. Fog.7 mph93%29.36 "Hg6 mi
11:30 AM34 °FSprinkles. Fog.12 mph100%29.35 "Hg4 mi
11:20 AM34 °FSprinkles. Fog.12 mph93%29.35 "Hg4 mi
10:30 AM36 °FLight rain. More clouds than sun.8 mph100%29.34 "Hg10 mi
9:30 AM36 °FLight rain. Fog.10 mph100%29.33 "Hg5 mi
8:30 AM36 °FLight rain. Low clouds.3 mph93%29.33 "Hg10 mi
7:30 AM37 °FLight rain. Low clouds.3 mph93%29.33 "Hg10 mi
6:30 AM36 °FLight rain. Low clouds.7 mph100%29.33 "Hg6 mi
5:30 AM37 °FLight rain. Low clouds.9 mph100%29.36 "Hg8 mi
4:30 AM39 °FLight rain. Overcast.2 mph93%29.35 "Hg15 mi
Weather by CustomWeather, © 2014

See weather overviewHow to use our weather pages